Flag for Sudan Weather past 2 weeks in Khartoum, Sudan

Now
N/A

Clear.


Feels Like: N/A
Forecast: 62 / 83 °F
Wind: 10 mph from Northwest

Location: Khartoum Airport

Current Time: Dec 22, 2014 at 8:56:23 PM

Latest Report: Dec 22, 2014 at 8:30 PM


Visibility: 10 mi

Pressure: 29.95 "Hg

Humidity: N/A

Dew point: N/A

Location of KhartoumLocation

Historic Weather in Khartoum — Graph

°F

Khartoum temperature yesterday

Maximum temperature yesterday: 88 °F (at 4:00 PM)
Minimum temperature yesterday: 68 °F (at 6:00 AM)
Average temperature yesterday: 77 °F

Past Weeks' High & Low Weather Summary

 TemperatureHumidityPressure
High99 °F (Dec 11, 2:00 PM)43% (Dec 19, 7:00 AM)30.04 "Hg (Dec 19, 7:00 AM)
Low64 °F (Dec 15, 8:00 AM)10% (Dec 11, 3:00 PM)29.77 "Hg (Dec 8, 4:30 PM)
Average80 °F26%29.93 "Hg
* Reported Dec 7 8:00 PM — Dec 22 8:00 PM, Khartoum, Weather by CustomWeather, © 2014

Note: Actual official high and low records may vary slightly from our data, if they occured in-between our weather recording intervals... More about our weather records

Advertising

Khartoum weather history for previous 24 hours

 ConditionsComfort  
Time TempWeatherWind HumidityBarometerVisibility
8:00 PM
Dec 22
79 °FClear.10 mph26%29.95 "Hg10 mi
7:30 PMN/AClear.12 mphN/A29.92 "Hg10 mi
7:00 PM82 °FClear.15 mph25%29.92 "Hg10 mi
6:30 PMN/AClear.12 mphN/A29.92 "Hg10 mi
6:00 PM84 °FSunny.15 mph25%29.92 "Hg10 mi
5:30 PMN/ASunny.13 mphN/A29.92 "Hg10 mi
5:00 PM86 °FSunny.12 mph22%29.89 "Hg10 mi
4:30 PMN/ASunny.8 mphN/A29.89 "Hg10 mi
4:00 PM86 °FSunny.8 mph27%29.89 "Hg10 mi
3:30 PMN/ASunny.9 mphN/A29.92 "Hg10 mi
3:00 PM86 °FSunny.12 mph27%29.92 "Hg10 mi
2:30 PMN/ASunny.16 mphN/A29.92 "Hg10 mi
2:00 PM84 °FSunny.9 mph25%29.95 "Hg10 mi
1:30 PMN/ASunny.10 mphN/A29.95 "Hg10 mi
1:00 PM81 °FSunny.13 mph28%29.98 "Hg10 mi
12:30 PMN/ASunny.13 mphN/A29.98 "Hg10 mi
12:00 PM77 °FSunny.12 mph28%29.98 "Hg10 mi
11:30 AMN/ASunny.10 mphN/A30.01 "Hg10 mi
11:00 AM73 °FSunny.12 mph25%30.01 "Hg10 mi
10:30 AMN/ASunny.13 mphN/A29.86 "Hg10 mi
10:00 AM70 °FSunny.14 mph27%30.01 "Hg10 mi
9:30 AMN/ASunny.14 mphN/A30.01 "Hg10 mi
9:00 AM68 °FSunny.12 mph30%29.98 "Hg10 mi
8:30 AMN/ASunny.15 mphN/A29.98 "Hg10 mi
8:00 AM66 °FSunny.14 mph30%29.98 "Hg10 mi
7:30 AMN/ASunny.14 mphN/A29.98 "Hg10 mi
7:00 AM66 °FClear.14 mph32%29.95 "Hg10 mi
6:30 AMN/AClear.16 mphN/A29.95 "Hg10 mi
3:00 AM72 °FClear.14 mph31%29.95 "Hg10 mi
2:30 AMN/AClear.14 mphN/A29.95 "Hg10 mi
2:00 AM72 °FClear.14 mph31%29.95 "Hg10 mi
1:30 AMN/AClear.15 mphN/A29.95 "Hg10 mi
12:30 AMN/AClear.14 mphN/A29.98 "Hg10 mi
12:00 AM75 °FClear.14 mph29%29.98 "Hg10 mi
11:30 PM
Dec 21
N/AClear.12 mphN/A29.98 "Hg10 mi
Weather by CustomWeather, © 2014

See weather overviewHow to use our weather pages